Probability
26 32 68 68 68 68 68 61 58 58 48 42 42 39 35 32 26 23 19 13 6 10 10 10 6 3 6 10 10 10 3 6 3 3 3 3 3 3 3 0 0 0 0
26 39 68 68 71 68 71 68 52 48 48 45 42 45 48 35 23 26 26 13 19 23 16 6 3 6 6 10 3 3 3 0 3 3 0 3 3 6 3 0 0 0 0
35 42 65 74 68 74 71 65 55 48 48 48 48 45 48 32 29 26 23 19 26 16 16 13 10 6 6 3 6 0 0 0 3 0 0 0 0 3 6 0 0 0 0
42 48 55 71 71 71 71 71 58 48 48 48 48 48 42 35 29 26 29 23 19 16 13 13 10 10 6 3 0 0 0 3 3 0 0 0 0 3 0 0 0 0 0
39 42 55 68 68 68 68 61 61 55 48 45 45 45 39 39 35 32 23 16 16 16 10 10 10 6 3 0 0 0 0 3 3 0 0 0 0 0 0 0 0 0 0
39 42 55 61 68 65 65 65 58 58 52 48 52 45 39 42 35 32 26 19 19 16 10 6 6 3 0 0 0 0 0 0 0 0 0 0 0 0 0 0 0 0 0
35 35 48 55 61 58 58 58 58 61 52 48 55 48 39 39 32 29 23 16 16 16 13 10 6 0 0 0 0 0 0 0 0 0 0 0 0 0 0 0 0 3 0
35 39 42 45 52 52 52 52 52 52 45 52 45 39 35 32 29 19 19 19 16 10 10 10 3 3 6 6 0 0 0 0 0 0 0 0 0 0 0 0 0 3 0
29 32 35 35 35 42 48 48 48 48 48 48 45 45 29 29 29 23 16 13 10 13 13 10 6 3 3 6 6 6 0 0 0 0 0 0 0 0 0 0 0 0 0
19 26 26 32 29 29 32 32 35 35 32 32 32 26 19 16 19 19 19 16 13 10 13 19 10 6 3 3 3 3 0 0 0 0 0 0 0 0 3 0 6 3 3
16 19 19 23 23 23 23 23 26 26 23 23 16 3 3 0 0 0 0 3 3 6 10 10 13 6 3 0 0 0 0 0 0 0 0 0 0 0 0 0 3 3 3
10 10 13 13 19 19 19 16 16 16 13 6 3 3 0 0 0 0 0 0 0 0 0 6 6 0 0 0 0 0 0 0 0 0 0 0 0 0 0 3 3 3 0
6 6 6 13 13 13 13 10 3 3 3 3 3 3 0 0 0 0 0 0 0 0 0 0 0 0 0 0 0 0 0 0 0 0 0 0 0 0 0 0 3 6 6
6 6 6 6 10 10 10 6 3 3 3 0 0 0 0 0 0 0 0 0 0 0 0 0 0 0 0 0 0 0 0 0 0 0 0 0 0 0 0 3 0 6 6
3 3 3 3 6 6 6 3 3 3 3 0 0 0 0 0 0 0 0 0 0 0 0 0 0 0 0 0 0 0 0 0 0 0 0 0 0 0 0 0 0 0 3
3 3 3 6 6 6 6 3 3 3 3 0 0 0 0 0 0 0 0 0 0 0 0 0 0 0 0 0 0 0 0 0 0 0 0 0 0 0 0 0 0 0 0
3 3 3 6 6 3 3 3 3 3 3 0 0 0 0 0 0 0 0 0 0 0 0 0 0 0 0 0 0 0 0 0 0 0 0 0 0 0 0 0 0 0 0
0 0 3 3 3 3 3 3 3 3 3 0 0 0 0 0 0 0 0 0 0 0 0 0 0 0 0 0 0 0 0 0 0 0 0 0 0 0 0 0 0 0 0
0 0 0 0 0 0 0 0 3 3 0 0 0 0 0 0 0 0 0 0 0 0 0 0 0 0 0 0 0 0 0 0 0 0 0 0 0 0 0 0 0 0 0
0 0 0 0 0 0 0 0 0 0 0 0 0 0 0 0 0 0 0 0 0 0 0 0 0 0 0 0 0 0 0 0 0 0 0 0 0 0 0 0 0 0 0
0 0 0 0 0 0 0 0 0 0 0 0 0 0 0 0 0 0 0 0 0 0 0 0 0 0 0 0 0 0 0 0 0 0 0 0 0 0 0 0 0 0 0
0 0 0 0 0 0 0 0 0 0 0 0 0 0 0 0 0 0 0 0 0 0 0 0 0 0 0 0 0 0 0 0 0 0 0 0 0 0 0 0 0 0 0
0 0 0 0 0 0 0 0 0 0 0 0 0 0 0 0 0 0 0 0 0 0 0 0 0 0 0 0 0 0 0 0 0 0 0 0 0 0 0 0 0 0 0
0 0 0 0 0 0 0 0 0 0 0 0 0 0 0 0 0 0 0 0 0 0 0 0 0 0 0 0 0 0 0 0 0 0 0 0 0 0 0 0 0 0 0
0 0 0 0 0 0 0 0 0 0 0 0 0 0 0 0 0 0 0 0 0 0 0 0 0 0 0 0 0 0 0 0 0 0 0 0 0 0 0 0 0 0 0
0 0 0 0 0 0 0 0 0 0 0 0 0 0 0 0 0 0 0 0 0 0 0 0 0 0 0 0 0 0 0 0 0 0 0 0 0 0 0 0 0 0 0
Height
5858 5859 5860 5861 5862 5863 5864 5866 5867 5867 5868 5868 5869 5869 5870 5870 5870 5871 5871 5871 5872 5872 5872 5872 5872 5872 5872 5872 5873 5873 5873 5872 5872 5872 5872 5872 5872 5872 5872 5872 5872 5872 5871
5854 5856 5857 5859 5860 5861 5862 5864 5865 5866 5866 5867 5867 5868 5868 5869 5869 5869 5870 5870 5870 5870 5871 5871 5871 5871 5871 5871 5871 5871 5871 5871 5870 5870 5870 5870 5870 5870 5870 5869 5869 5869 5869
5851 5853 5854 5856 5858 5859 5860 5861 5862 5863 5864 5865 5865 5866 5866 5867 5867 5868 5868 5868 5868 5869 5869 5869 5869 5869 5869 5869 5869 5869 5869 5868 5868 5868 5868 5868 5867 5867 5867 5867 5867 5866 5866
5847 5849 5851 5853 5855 5856 5858 5859 5860 5861 5862 5863 5863 5864 5864 5865 5865 5866 5866 5866 5866 5866 5866 5866 5866 5866 5866 5866 5866 5866 5866 5866 5865 5865 5865 5865 5865 5864 5864 5864 5864 5863 5863
5843 5845 5848 5850 5852 5853 5855 5856 5857 5858 5859 5860 5861 5861 5862 5863 5863 5863 5863 5863 5864 5864 5864 5864 5864 5863 5863 5863 5863 5863 5863 5863 5863 5862 5862 5862 5862 5861 5861 5861 5860 5860 5860
5838 5841 5844 5846 5848 5850 5851 5853 5854 5855 5856 5857 5858 5859 5859 5860 5860 5860 5860 5861 5861 5861 5861 5861 5861 5860 5860 5860 5860 5860 5859 5859 5859 5859 5859 5858 5858 5858 5857 5857 5857 5856 5856
5834 5837 5840 5843 5844 5846 5848 5849 5850 5852 5853 5854 5855 5855 5856 5857 5857 5857 5857 5857 5858 5858 5857 5857 5857 5857 5857 5857 5856 5856 5856 5855 5855 5855 5855 5854 5854 5854 5853 5853 5853 5852 5852
5830 5833 5836 5839 5840 5842 5844 5845 5846 5847 5849 5850 5851 5852 5852 5853 5853 5854 5854 5854 5854 5854 5854 5854 5854 5853 5853 5853 5853 5852 5852 5851 5851 5851 5850 5850 5850 5849 5849 5849 5848 5848 5847
5825 5829 5832 5834 5836 5838 5840 5841 5843 5844 5845 5846 5847 5848 5849 5849 5849 5850 5850 5850 5850 5850 5850 5850 5850 5849 5849 5849 5848 5848 5847 5847 5846 5846 5846 5845 5845 5845 5844 5844 5843 5843 5843
5821 5824 5827 5829 5831 5834 5836 5837 5838 5840 5841 5842 5843 5844 5844 5845 5845 5845 5846 5846 5846 5846 5846 5845 5845 5845 5844 5844 5844 5843 5843 5842 5842 5841 5841 5840 5840 5839 5839 5839 5838 5838 5837
5816 5819 5822 5824 5826 5829 5831 5832 5834 5836 5837 5838 5838 5839 5840 5840 5840 5841 5841 5841 5841 5841 5841 5841 5840 5840 5840 5839 5839 5838 5838 5837 5837 5836 5835 5835 5834 5834 5833 5833 5832 5832 5831
5811 5814 5818 5820 5821 5824 5826 5828 5829 5831 5832 5833 5833 5834 5835 5835 5835 5836 5836 5836 5836 5836 5836 5836 5835 5835 5835 5834 5833 5833 5832 5831 5831 5830 5830 5829 5828 5828 5827 5827 5826 5826 5825
5807 5809 5812 5815 5818 5820 5821 5823 5825 5826 5827 5827 5828 5829 5829 5830 5830 5831 5831 5831 5831 5831 5831 5830 5830 5830 5829 5828 5828 5827 5826 5825 5824 5824 5823 5822 5822 5821 5821 5820 5819 5819 5818
5802 5804 5807 5809 5812 5814 5816 5818 5820 5821 5822 5822 5823 5823 5824 5824 5825 5825 5825 5826 5826 5826 5825 5825 5824 5824 5823 5822 5822 5821 5820 5819 5818 5817 5816 5816 5815 5814 5814 5813 5812 5812 5811
5797 5800 5803 5805 5807 5809 5811 5813 5815 5816 5816 5817 5818 5818 5818 5819 5819 5819 5820 5820 5820 5820 5820 5819 5818 5818 5817 5816 5815 5814 5813 5812 5811 5810 5809 5809 5808 5807 5806 5806 5805 5805 5804
5793 5795 5798 5800 5802 5804 5806 5808 5809 5810 5811 5812 5813 5813 5813 5813 5813 5814 5814 5814 5814 5814 5814 5813 5812 5812 5811 5810 5809 5808 5806 5805 5804 5803 5802 5801 5800 5799 5798 5798 5797 5796 5796
5788 5791 5793 5796 5798 5799 5801 5803 5804 5805 5806 5806 5807 5807 5807 5807 5808 5808 5808 5808 5808 5808 5807 5806 5806 5805 5804 5803 5802 5801 5800 5798 5797 5796 5795 5793 5792 5791 5790 5789 5789 5788 5787
5784 5787 5789 5791 5793 5795 5796 5797 5799 5800 5800 5801 5801 5801 5801 5801 5802 5802 5802 5802 5802 5801 5800 5800 5799 5798 5797 5796 5795 5794 5792 5791 5790 5788 5787 5785 5784 5783 5782 5781 5780 5779 5778
5780 5782 5784 5786 5788 5790 5791 5792 5793 5794 5794 5795 5795 5795 5795 5795 5795 5795 5795 5795 5794 5794 5794 5793 5792 5791 5790 5789 5788 5786 5785 5784 5782 5781 5779 5777 5776 5774 5773 5772 5771 5770 5769
5776 5777 5779 5781 5783 5784 5785 5786 5787 5788 5788 5788 5788 5788 5788 5788 5788 5788 5788 5788 5787 5787 5786 5785 5785 5784 5782 5781 5780 5779 5777 5775 5774 5772 5771 5769 5767 5766 5764 5763 5762 5760 5759
5771 5772 5774 5775 5777 5778 5779 5780 5781 5781 5781 5781 5781 5781 5781 5781 5781 5781 5781 5780 5780 5779 5778 5777 5776 5775 5774 5773 5772 5771 5769 5767 5765 5764 5762 5760 5758 5757 5755 5754 5752 5751 5750
5766 5767 5769 5770 5771 5772 5773 5774 5774 5774 5774 5774 5774 5773 5773 5773 5773 5773 5773 5772 5772 5771 5770 5769 5768 5767 5766 5764 5764 5762 5761 5760 5757 5755 5753 5751 5749 5747 5746 5744 5743 5742 5740
5760 5762 5763 5764 5765 5766 5767 5767 5767 5767 5767 5767 5767 5766 5766 5766 5766 5766 5765 5764 5764 5763 5762 5761 5759 5758 5757 5756 5754 5753 5752 5751 5749 5746 5744 5741 5739 5737 5736 5734 5733 5732 5730
5755 5756 5757 5758 5759 5759 5760 5760 5760 5760 5760 5760 5759 5759 5759 5758 5758 5758 5757 5757 5755 5754 5753 5752 5751 5750 5749 5747 5746 5744 5742 5740 5739 5738 5735 5732 5729 5727 5725 5724 5722 5721 5720
5749 5750 5751 5751 5752 5752 5753 5753 5753 5753 5752 5752 5752 5751 5751 5750 5750 5749 5749 5748 5747 5746 5745 5744 5742 5741 5740 5738 5736 5734 5732 5730 5728 5727 5726 5723 5720 5717 5715 5713 5712 5710 5709
5743 5743 5744 5745 5745 5745 5746 5746 5745 5745 5744 5744 5744 5743 5743 5742 5742 5741 5740 5739 5738 5737 5736 5734 5733 5732 5730 5729 5727 5725 5723 5721 5719 5716 5715 5713 5711 5708 5705 5703 5702 5700 5699
Wind_Speed
15 15 14 12 12 11 9 8 7 7 6 6 6 6 6 6 6 6 6 7 7 6 7 7 7 7 8 8 8 9 9 9 10 10 10 11 11 11 11 11 12 12 12
18 16 16 14 13 12 11 10 9 8 8 8 8 7 7 7 7 7 7 8 8 8 9 9 9 9 9 10 10 10 11 11 11 12 12 12 12 12 13 13 13 13 14
19 18 17 16 14 13 13 12 11 10 10 9 9 9 9 9 9 9 9 9 10 10 11 11 11 11 11 12 12 12 12 13 13 13 14 14 14 15 15 15 15 15 15
20 19 18 17 16 15 14 13 12 12 11 11 10 10 10 10 10 10 10 11 11 12 12 12 13 13 13 14 14 14 14 14 15 15 15 15 16 16 16 17 17 17 17
21 21 20 18 17 17 16 15 14 13 13 12 12 11 11 11 12 12 12 13 13 13 14 14 14 15 15 15 16 16 16 16 16 16 17 17 17 17 17 18 18 19 19
23 22 21 20 19 18 17 15 15 14 14 14 13 13 13 13 14 14 14 14 14 15 15 15 16 16 17 17 17 17 18 18 18 18 19 19 19 19 19 19 19 20 20
24 23 21 21 20 19 18 17 16 16 16 15 15 15 15 15 15 15 15 15 16 16 16 17 17 17 18 18 19 19 19 19 20 20 20 20 20 20 20 20 21 21 21
24 24 22 21 21 20 19 18 17 17 17 17 17 17 17 17 17 17 17 17 18 18 18 19 19 19 20 20 20 20 21 21 22 22 22 22 22 22 22 22 22 22 23
25 24 23 22 22 21 19 18 18 18 18 18 18 18 19 19 19 19 19 19 20 20 21 21 21 21 21 22 22 22 22 23 23 24 24 24 24 24 24 24 24 25 25
26 25 24 23 22 21 21 20 19 19 19 19 19 20 20 20 20 21 21 21 22 22 22 22 22 23 23 23 24 24 24 24 25 25 25 25 26 26 26 26 27 27 27
26 26 24 24 22 22 22 21 20 20 20 20 21 21 21 21 21 22 22 23 23 23 23 23 24 24 24 25 25 26 26 26 27 27 27 28 28 28 29 29 29 29 29
26 26 25 24 24 22 22 22 20 21 21 22 22 22 22 22 22 23 23 23 24 24 24 24 24 25 25 25 26 26 27 27 28 29 30 30 30 30 31 31 30 30 30
25 25 26 25 24 23 23 22 22 22 22 23 23 23 23 23 24 24 24 24 23 24 24 24 24 24 25 26 27 28 29 29 29 30 31 32 32 31 31 32 32 32 32
25 24 25 25 24 23 22 23 22 23 22 23 23 24 24 24 24 24 25 24 24 24 25 25 25 26 26 27 28 28 29 30 30 30 31 32 32 32 32 32 32 33 33
25 25 25 25 25 24 24 24 23 24 23 22 23 24 24 25 25 24 24 25 25 25 26 26 26 27 27 28 28 29 29 30 31 32 32 32 33 33 34 34 34 34 34
26 25 26 27 26 25 25 25 25 24 24 24 24 24 25 26 25 25 26 26 26 26 27 27 28 28 28 28 29 30 31 31 32 33 33 33 34 34 35 35 36 36 37
27 25 24 26 26 25 25 26 26 26 26 26 25 25 26 26 26 27 27 28 28 28 28 29 29 30 30 30 31 31 31 32 32 32 33 34 35 36 36 37 37 37 38
27 26 25 25 26 27 27 26 26 27 27 27 27 27 27 27 28 28 29 29 29 29 30 30 30 31 31 31 31 32 32 32 33 33 34 35 36 37 37 38 38 38 38
27 27 26 26 27 28 28 28 28 28 29 29 29 28 28 29 29 30 30 31 31 32 32 32 32 32 32 32 33 33 34 34 34 34 35 36 37 37 38 38 38 39 39
27 27 27 27 28 29 29 30 30 29 30 30 31 30 30 29 29 30 31 32 32 32 33 33 33 34 34 34 34 34 34 35 36 36 37 37 37 38 38 38 39 39 39
25 26 27 28 28 29 30 30 31 31 31 31 32 32 31 30 31 32 33 33 33 33 34 35 35 35 35 35 35 35 35 35 35 36 37 38 38 38 38 38 39 39 39
26 27 28 29 29 29 31 31 32 32 32 32 32 32 32 31 31 32 33 33 34 33 33 34 35 36 36 36 36 36 36 36 37 37 38 38 38 38 39 39 39 39 40
27 28 29 30 31 31 32 33 34 33 33 33 34 34 34 34 33 33 33 34 34 34 35 34 34 35 35 36 37 37 37 37 37 38 38 38 38 39 40 40 40 40 40
28 29 30 31 32 33 33 33 34 34 34 35 35 35 35 35 34 33 34 35 34 34 35 35 35 35 36 37 38 39 39 38 38 38 38 39 40 40 40 40 39 39 40
29 30 31 32 33 34 34 34 34 35 36 36 35 35 36 36 36 35 35 35 35 36 37 37 36 36 37 37 38 38 39 39 39 39 39 40 40 40 40 40 40 40 40
31 31 32 33 34 34 35 35 35 36 36 36 36 36 36 37 37 37 36 36 36 37 37 37 37 37 38 38 39 39 39 39 39 39 39 39 39 40 39 39 40 41 41
Wind_Direction
240 242 241 241 244 245 245 247 251 254 256 262 268 273 277 279 283 286 290 294 295 296 297 297 297 297 296 295 295 295 295 296 295 291 288 286 284 284 283 280 280 282 282
237 239 241 240 243 245 245 247 252 256 259 264 269 273 276 278 280 283 285 288 290 291 291 293 294 293 293 292 292 292 292 292 292 290 288 286 285 283 283 281 280 281 282
236 237 238 239 242 244 245 248 252 255 259 264 269 272 274 277 279 281 282 286 288 288 288 290 290 290 290 291 291 291 290 289 288 288 286 284 284 283 283 282 281 281 282
234 235 236 238 241 244 246 248 250 253 257 262 266 269 273 276 279 281 282 284 286 287 287 288 288 288 288 288 289 290 289 289 288 287 286 284 283 282 282 281 281 281 281
233 234 236 237 241 244 246 249 250 253 257 260 263 267 271 275 277 279 281 283 284 285 286 286 286 286 286 287 287 287 287 286 286 285 285 285 284 283 282 282 281 281 281
232 233 236 237 239 243 246 248 252 254 256 258 262 266 271 274 276 278 280 281 282 284 285 286 286 286 287 287 287 286 285 285 285 284 284 284 284 283 282 281 281 281 281
231 232 234 236 238 241 245 248 251 254 256 258 261 265 269 273 275 277 278 280 281 282 284 285 285 285 286 286 286 286 285 284 284 284 284 283 283 282 282 281 281 281 281
230 231 233 235 237 240 244 248 252 254 256 259 262 264 267 270 273 275 276 278 280 281 282 283 283 284 284 284 285 284 284 283 283 283 282 282 282 281 281 282 281 281 281
230 230 231 234 235 239 243 248 251 254 257 260 263 265 267 269 271 273 275 277 279 281 282 283 283 284 284 284 285 285 284 283 283 283 282 281 280 280 280 280 281 281 280
228 228 228 233 235 239 242 246 251 254 258 262 264 266 268 268 270 272 274 276 278 280 280 281 282 283 283 284 284 284 283 283 283 283 282 282 281 280 280 280 280 280 280
228 229 230 233 236 236 241 245 251 254 258 262 264 266 267 268 270 272 275 277 279 280 280 281 282 283 284 285 285 284 284 283 283 282 282 281 281 281 280 280 280 279 279
230 228 230 231 235 236 241 245 250 254 257 261 264 265 266 268 271 273 275 276 278 279 281 282 284 284 285 285 285 285 285 284 282 282 282 281 281 281 280 280 280 279 279
232 231 230 232 236 238 240 245 250 256 257 260 263 265 266 269 271 273 275 275 277 279 281 283 284 284 284 284 284 284 285 284 283 282 281 281 281 280 280 280 279 279 279
231 231 231 234 236 240 243 248 254 259 262 261 263 264 266 269 270 271 273 274 276 278 280 282 282 283 284 285 285 284 284 283 283 283 282 282 281 281 280 280 280 280 280
231 232 232 234 238 243 245 249 255 259 263 266 266 267 268 270 272 272 273 275 277 279 280 281 283 284 284 285 285 285 284 284 284 283 282 282 281 281 280 280 280 280 279
232 235 235 235 239 244 247 250 255 260 264 267 270 269 270 270 272 272 274 275 277 279 280 282 282 284 285 286 286 287 285 285 284 284 283 282 281 281 281 280 280 280 280
234 237 236 240 242 246 251 252 255 261 263 265 269 269 270 270 270 271 273 274 275 277 279 281 282 284 285 285 285 286 286 286 286 285 284 283 282 281 281 281 280 280 280
235 239 242 243 245 248 253 256 257 261 264 266 267 268 269 270 269 270 272 273 275 277 278 281 282 283 284 284 285 285 286 286 287 286 286 284 282 281 281 281 281 281 280
237 242 245 246 248 253 256 259 262 264 265 266 268 268 269 269 268 269 272 274 274 276 278 279 281 283 283 284 284 286 286 285 286 286 286 285 284 283 282 281 281 281 280
240 243 246 249 251 256 259 261 264 266 266 268 268 269 268 268 269 271 272 274 275 276 278 278 279 282 283 284 284 285 286 286 286 286 285 286 285 284 283 282 282 281 280
246 247 250 253 256 257 260 264 267 269 270 271 271 271 270 270 270 271 272 274 276 277 278 278 279 281 282 282 283 285 286 287 288 288 287 287 286 284 284 283 282 282 282
249 250 252 255 258 261 263 265 268 271 272 273 273 273 271 271 273 274 275 276 277 278 279 279 279 281 281 281 283 284 285 287 288 288 288 288 287 285 284 283 283 282 282
252 254 256 258 259 262 266 268 271 273 274 274 274 275 274 273 275 276 277 278 278 278 279 279 280 281 282 282 283 284 285 285 287 288 288 288 287 286 285 284 283 282 282
256 257 258 260 261 264 267 270 272 273 274 274 273 273 273 273 274 275 277 278 277 277 278 279 280 281 283 284 285 285 286 286 287 287 288 288 288 287 287 285 283 281 281
259 260 261 262 264 266 267 270 272 272 273 273 272 272 273 273 274 275 277 277 277 279 279 280 281 283 285 286 287 287 288 288 288 288 287 288 288 288 287 285 283 282 281
260 261 262 263 265 267 268 268 270 272 272 272 272 272 273 274 275 275 276 278 278 278 280 282 284 285 286 288 288 288 289 289 289 289 289 289 289 288 287 286 285 282 282